Flag for U.S.A. Weather past 2 weeks in Lexington, North Carolina, U.S.A.

Now
37 °F

Overcast.


Feels Like: 37 °F
Forecast: 37 / 42 °F
Wind: No wind

Location: Davidson County Airport

Current Time: Mar 3, 2015 at 4:19:40 PM

Latest Report: Mar 3, 2015 at 3:55 PM


Visibility: 10 mi

Pressure: 30.21 "Hg

Humidity: 87%

Dew point: 34 °F

Location of LexingtonLocation

Historic Weather in Lexington — Graph

°F

Lexington temperature yesterday

Maximum temperature yesterday: 64 °F (at 1:15 PM)
Minimum temperature yesterday: 37 °F (at 12:15 AM)
Average temperature yesterday: 47 °F

Past Weeks' High & Low Weather Summary

 TemperatureHumidityPressure
High64 °F (Mar 2, 1:15 PM)99% (Feb 25, 9:35 PM)30.74 "Hg (Feb 25, 9:35 PM)
Low3 °F (Feb 20, 6:55 AM)25% (Feb 19, 3:55 PM)29.70 "Hg (Feb 26, 3:55 AM)
Average31 °F68%30.20 "Hg
* Reported Feb 16 3:15 PM — Mar 3 3:15 PM, Lexington, Weather by CustomWeather, © 2015

Note: Actual official high and low records may vary slightly from our data, if they occured in-between our weather recording intervals... More about our weather records

Advertising

Lexington weather history for previous 24 hours

 ConditionsComfort  
Time TempWeatherWind HumidityBarometerVisibility
3:15 PM
Tue, Mar 3
37 °FMostly cloudy.No wind87%30.21 "Hg10 mi
2:55 PM37 °FOvercast.No wind87%30.24 "Hg10 mi
2:35 PM37 °FCloudy.No wind87%30.23 "Hg10 mi
2:15 PM37 °FMore clouds than sun.No wind87%30.24 "Hg10 mi
1:55 PM37 °FMore clouds than sun.No wind87%30.24 "Hg10 mi
1:35 PM37 °FMostly cloudy.3 mph87%30.26 "Hg7 mi
1:15 PM37 °FFog.5 mph93%30.27 "Hg2 mi
12:55 PM37 °FFog.3 mph93%30.29 "Hg1 mi
12:35 PM37 °FFog.No wind87%30.32 "Hg2 mi
12:17 PM37 °FFog.No wind87%30.34 "Hg5 mi
11:55 AM37 °FMostly cloudy.No wind87%30.33 "Hg7 mi
11:38 AM37 °FFog.7 mph87%30.32 "Hg2 mi
11:15 AM36 °FFog.No wind87%30.35 "Hg3 mi
10:55 AM36 °FOvercast.No wind87%30.36 "Hg7 mi
10:35 AM36 °FFog.3 mph87%30.36 "Hg4 mi
10:15 AM37 °FOvercast.6 mph81%30.36 "Hg3 mi
5:35 PM
Mon, Mar 2
58 °FSunny.5 mph33%30.24 "Hg10 mi
5:15 PM59 °FSunny.No wind34%30.24 "Hg10 mi
4:55 PM60 °FSunny.7 mph36%30.23 "Hg10 mi
4:15 PM60 °FSunny.6 mph40%30.22 "Hg10 mi
Weather by CustomWeather, © 2015

See weather overviewHow to use our weather pages